Probability
33 30 28 28 28 28 26 23 18 9 6 14 25 32 31 19 6 1 0 0 0 0 0 0 0 0 0 0 0 0 1 2 2 2 2 2 2 2
36 29 25 25 25 25 26 26 19 11 7 14 22 27 24 13 4 1 0 0 0 0 0 0 0 0 0 0 0 0 0 1 1 1 1 1 1 1
33 26 20 19 20 22 25 25 20 14 9 11 17 21 15 6 2 2 1 0 0 0 0 0 0 0 0 0 0 0 0 0 0 0 0 0 0 0
28 23 17 15 18 21 21 20 17 14 11 11 14 15 10 3 1 1 1 0 0 0 0 0 0 0 0 0 0 0 0 0 0 0 0 0 0 0
25 23 20 20 21 19 16 16 14 12 12 13 14 13 7 2 0 0 0 0 0 0 0 0 0 0 0 0 0 0 0 0 0 0 0 0 0 0
23 22 21 20 18 14 12 13 11 10 11 13 12 10 6 3 1 0 0 0 0 0 0 0 0 0 0 0 0 0 0 0 0 0 0 0 0 0
19 17 14 11 10 8 7 8 7 7 9 9 7 4 3 3 1 0 0 0 0 0 0 0 0 0 0 0 0 0 0 0 0 0 0 0 0 0
12 10 6 3 2 2 2 2 2 3 5 5 3 1 1 1 1 0 0 0 0 0 0 0 0 0 0 0 0 0 0 0 0 0 0 0 0 0
7 5 3 1 1 0 0 0 0 1 1 2 1 0 0 0 0 0 0 0 0 0 0 0 0 0 0 0 0 0 0 0 0 0 0 0 0 0
4 3 2 2 1 0 0 0 0 0 0 0 0 0 0 0 0 0 0 0 0 0 0 0 0 0 0 0 0 0 0 0 0 0 0 0 0 0
3 2 1 1 1 0 0 0 0 0 0 0 0 0 0 0 0 0 0 0 0 0 0 0 0 0 0 0 0 0 0 0 0 0 0 0 0 0
2 1 0 0 0 0 0 0 0 0 0 0 0 0 0 0 0 0 0 0 0 0 0 0 0 0 0 0 0 0 0 0 0 0 0 0 0 0
1 0 0 0 0 0 0 0 0 0 0 0 0 0 0 0 0 0 0 0 0 0 0 0 0 0 0 0 0 0 0 0 0 0 0 0 0 0
0 0 0 0 0 0 0 0 0 0 0 0 0 0 0 0 0 0 0 0 0 0 0 0 0 0 0 0 0 0 0 0 0 0 0 0 0 0
0 0 0 0 0 0 0 0 0 0 0 0 0 0 0 0 0 0 0 0 0 0 0 0 0 0 0 0 0 0 0 0 0 0 0 0 0 0
0 0 0 0 0 0 0 0 0 0 0 0 0 0 0 0 0 0 0 0 0 0 0 0 0 0 0 0 0 0 0 0 0 0 0 0 0 0
0 0 0 0 0 0 0 0 0 0 0 0 0 0 0 0 0 0 0 0 0 0 0 0 0 0 0 0 0 0 0 0 0 0 0 0 0 0
0 0 0 0 0 0 0 0 0 0 0 0 0 0 0 0 0 0 0 0 0 0 0 0 0 0 0 0 0 0 0 0 0 0 0 0 0 0
0 0 0 0 0 0 0 0 0 0 0 0 0 0 0 0 0 0 0 0 0 0 0 0 0 0 0 0 0 0 0 0 0 0 0 0 0 0
0 0 0 0 0 0 0 0 0 0 0 0 0 0 0 0 0 0 0 0 0 0 0 0 0 0 0 0 0 0 0 0 0 0 0 0 0 0
0 0 0 0 0 0 0 0 0 0 0 0 0 0 0 0 0 0 0 0 0 0 0 0 0 0 0 0 0 0 0 0 0 0 0 0 0 0
0 0 0 0 0 0 0 0 0 0 0 0 0 0 0 0 0 0 0 0 0 0 0 0 0 0 0 0 0 0 0 0 0 0 0 0 0 0
0 0 0 0 0 0 0 0 0 0 0 0 0 0 0 0 0 0 0 0 0 0 0 0 0 0 0 0 0 0 0 0 0 0 0 0 0 0
Wind_Speed
6 7 6 5 5 5 5 5 5 4 4 3 2 3 4 6 8 6 7 10 10 10 10 11 11 11 11 11 11 11 11 10 10 9 9 8 7 7
5 6 6 5 5 4 5 4 5 5 3 2 2 5 6 7 9 8 9 12 11 11 12 12 13 13 13 13 13 13 13 12 13 13 13 12 11 10
6 7 7 6 5 4 4 4 5 5 4 2 3 5 7 8 8 8 8 7 7 11 13 13 13 14 14 14 14 14 14 14 15 14 14 13 13 12
6 6 7 6 6 4 4 5 4 5 5 6 4 5 7 8 8 8 8 8 7 11 13 13 13 13 13 14 14 13 13 13 14 13 13 12 12 12
6 6 6 5 5 4 4 4 3 4 5 6 6 5 5 7 8 7 9 8 9 10 12 12 13 13 13 13 13 12 12 12 12 12 11 11 10 10
5 5 4 4 4 3 3 3 3 4 6 7 7 6 6 6 6 7 7 6 7 8 9 10 11 13 12 12 12 12 11 10 10 10 9 9 8 8
4 3 2 1 1 2 3 3 5 5 6 7 8 7 7 6 6 5 7 6 6 7 8 7 7 6 7 9 11 11 10 9 9 8 8 7 6 6
4 3 2 1 3 4 5 4 5 7 8 7 6 8 8 6 5 6 7 7 5 4 6 6 6 5 5 5 8 9 9 8 8 7 7 6 5 5
5 4 3 3 4 5 7 9 7 7 7 7 9 8 7 6 6 6 5 5 4 5 5 6 6 6 5 6 9 9 8 7 7 7 6 5 4 3
6 5 4 5 5 6 7 8 7 7 7 7 7 7 7 5 5 6 6 5 4 4 5 6 6 6 6 4 7 8 8 7 7 6 5 4 4 3
6 6 7 6 8 9 9 9 9 8 11 14 13 12 12 11 7 5 5 5 5 3 2 4 6 6 4 4 5 8 8 7 6 5 5 5 5 3
5 6 9 9 10 10 9 10 10 9 10 11 11 10 8 8 7 4 3 4 5 3 2 3 5 5 4 3 4 5 4 5 5 3 3 5 6 3
7 7 7 12 11 10 9 9 12 11 9 9 8 7 5 5 4 4 3 4 5 3 2 2 3 3 4 4 3 4 4 4 3 3 2 3 5 5
7 7 9 14 12 11 9 13 15 11 7 7 6 5 5 5 6 6 7 8 8 6 4 3 2 2 4 4 3 3 3 3 3 3 3 4 4 5
5 12 15 15 12 10 13 15 11 6 6 6 6 6 6 7 6 5 6 7 7 7 6 5 4 3 4 4 3 3 2 2 2 2 1 2 3 3
6 14 17 14 9 11 11 9 5 5 6 6 7 7 6 5 5 5 5 5 5 4 4 5 5 5 4 4 4 3 2 2 2 2 1 0 2 4
9 8 9 8 8 8 7 5 4 5 6 7 7 7 6 5 5 4 4 5 5 5 3 2 3 4 5 4 3 2 2 2 2 1 1 1 2 4
11 9 9 9 9 8 7 6 5 6 7 7 6 6 5 5 5 4 4 5 5 5 4 4 3 3 2 3 3 2 2 2 1 1 1 1 0 2
7 8 8 8 8 8 7 6 6 6 6 7 6 5 5 5 5 4 4 4 5 5 4 3 3 3 4 4 1 2 1 1 1 1 1 1 1 1
6 8 7 7 7 8 7 6 6 7 6 6 6 5 5 5 5 4 4 5 4 4 4 3 2 1 1 2 3 3 4 3 2 0 1 1 1 1
7 7 7 7 7 7 6 6 7 6 6 5 5 5 5 5 5 4 5 6 4 4 4 4 3 2 1 1 1 3 4 5 4 3 2 1 2 1
6 6 6 6 6 7 6 7 7 6 6 5 5 5 4 4 5 6 6 5 3 3 5 4 4 3 2 3 2 2 4 5 5 5 5 4 2 2
6 6 5 7 7 6 7 8 9 7 6 6 6 5 5 4 4 5 5 5 4 4 5 6 5 4 4 3 3 2 2 4 4 4 5 10 12 11
Wind_Direction
266 267 260 260 256 249 241 233 233 241 236 195 158 140 126 123 140 123 117 112 108 102 97 93 89 86 83 78 75 75 79 85 92 97 104 111 117 125
258 262 265 263 258 251 242 235 229 227 227 189 165 151 140 135 131 118 114 112 105 104 99 95 91 87 84 83 81 79 80 84 87 88 88 91 94 97
265 264 263 260 257 253 242 233 229 216 209 175 138 138 132 129 127 126 131 116 107 105 102 98 94 90 87 85 83 82 82 83 84 86 87 87 88 89
266 269 269 267 256 250 240 229 222 205 175 158 144 141 136 136 140 140 135 121 115 111 106 102 98 94 90 86 83 80 79 81 82 83 84 84 84 84
266 266 266 264 261 248 231 222 207 190 161 149 146 141 138 143 138 132 124 122 121 120 109 104 102 99 94 90 86 83 81 81 81 81 80 79 79 79
260 265 268 261 253 240 216 201 177 159 149 145 143 142 141 143 137 135 132 133 133 134 116 112 109 101 98 96 93 90 87 85 85 84 84 82 81 80
248 258 281 294 261 218 197 179 164 154 151 149 147 143 145 151 151 148 140 134 127 131 131 132 129 116 106 102 97 96 94 91 88 87 86 86 86 85
223 203 191 156 116 108 120 137 160 164 160 153 149 152 152 152 142 142 139 139 139 151 143 146 139 123 117 106 112 109 103 99 95 91 87 84 83 82
207 199 197 157 143 124 110 100 96 115 135 143 143 145 143 147 140 133 137 139 131 150 136 129 125 114 109 116 128 120 113 104 96 88 80 77 77 79
201 187 170 162 149 138 122 104 91 84 99 107 114 112 113 108 114 126 128 118 107 117 127 129 131 126 121 127 148 140 130 120 109 94 79 63 54 75
191 173 165 151 143 134 124 116 106 93 83 93 98 99 98 97 101 117 132 132 130 127 122 126 132 129 132 141 163 163 149 140 128 106 72 43 30 70
178 158 154 146 145 139 135 128 119 115 113 105 99 99 102 101 101 116 148 144 135 126 123 120 143 141 136 149 155 166 164 164 157 135 90 49 32 50
172 158 150 146 145 141 136 128 130 127 121 118 116 116 114 105 91 70 65 118 122 107 105 109 144 152 132 140 150 162 161 159 170 169 162 103 66 61
171 155 149 150 143 137 128 131 134 133 128 128 127 126 119 103 89 79 74 78 89 89 54 53 89 101 117 128 132 138 138 140 141 150 156 153 121 97
166 146 146 147 137 131 138 143 145 143 137 135 130 121 111 109 107 99 91 86 80 75 61 47 53 54 87 105 108 114 118 123 114 102 123 158 161 147
149 139 141 144 140 136 147 157 167 153 140 126 117 114 118 125 129 129 121 112 99 83 67 60 54 58 69 78 90 93 88 95 87 73 34 184 135 121
140 139 145 148 147 149 162 174 168 144 127 121 125 135 145 148 147 144 139 136 129 128 121 93 81 81 77 66 82 81 83 78 85 57 323 280 144 129
144 147 151 156 155 157 164 165 157 140 134 134 141 149 150 147 145 150 153 146 141 141 145 149 140 122 99 44 28 62 73 67 47 344 332 349 88 130
151 154 159 164 161 162 163 160 152 140 137 142 147 148 145 142 145 152 148 136 133 133 137 145 156 167 179 167 236 313 117 100 11 351 343 336 310 164
172 166 170 170 165 162 164 159 147 143 144 146 148 148 146 147 151 154 144 138 135 137 136 130 118 95 83 122 149 198 224 178 162 204 321 316 340 82
186 177 178 172 165 158 156 148 144 147 151 148 147 150 152 154 157 154 138 140 148 153 146 139 147 148 115 83 186 168 195 216 201 184 205 261 277 260
193 181 180 166 160 154 148 146 148 149 151 152 149 155 159 161 157 150 146 156 173 161 142 140 162 176 195 222 235 187 179 192 226 233 239 228 217 231
194 187 176 167 157 149 150 154 154 155 158 160 157 163 168 163 156 155 159 170 169 163 155 159 176 196 208 212 222 222 204 191 191 197 234 232 233 244